When you browse on this site, cookies collect data to enhance your experience and personalize the content and advertising you see.
Visit our Privacy Policy to learn more. By continuing to use the site, you agree to this use of cookies and data.
  • In Schweiz
  • Länderverzeichnis
  • Für 7 Tage
  • Wassertemperatur
  • Satellitenkarten
  • Wetterkarte
  • Widgets
  • user-avatar
    Anmelden

    Stündliche Wetter Idshewan

    Heute, 20 Juni, Donnerstag

    Zeit Temperatur Niederschläge Wind Luftdruck Luftfeuchtigkeit
    00:00 +21°C° 0.5 mm 1 m/S 691 mmHg 84%
    01:00 +20°C° 0.1 mm 1 m/S 691 mmHg 84%
    02:00 +20°C° 0.1 mm 1 m/S 691 mmHg 84%
    03:00 +18°C° 0 mm 2 m/S 690 mmHg 84%
    04:00 +19°C° 0 mm 2 m/S 691 mmHg 83%
    05:00 +21°C° 0 mm 1 m/S 691 mmHg 83%
    06:00 +22°C° 0 mm 1 m/S 691 mmHg 82%
    07:00 +23°C° 0.5 mm 1 m/S 691 mmHg 80%
    08:00 +24°C° 0.5 mm 2 m/S 691 mmHg 77%
    09:00 +25°C° 0.5 mm 2 m/S 690 mmHg 75%
    10:00 +26°C° 1.1 mm 2 m/S 690 mmHg 72%
    11:00 +26°C° 1.1 mm 2 m/S 690 mmHg 70%
    12:00 +27°C° 1.1 mm 2 m/S 690 mmHg 68%
    13:00 +27°C° 1.1 mm 2 m/S 690 mmHg 68%
    14:00 +27°C° 1.1 mm 2 m/S 689 mmHg 68%
    15:00 +27°C° 1.1 mm 2 m/S 689 mmHg 68%
    16:00 +27°C° 0.7 mm 2 m/S 689 mmHg 70%
    17:00 +26°C° 0.7 mm 1 m/S 689 mmHg 72%
    18:00 +26°C° 0.7 mm 1 m/S 689 mmHg 75%
    19:00 +24°C° 0.4 mm 2 m/S 689 mmHg 76%
    20:00 +23°C° 0.4 mm 2 m/S 690 mmHg 77%
    21:00 +20°C° 0.4 mm 2 m/S 690 mmHg 78%
    22:00 +20°C° 0.1 mm 2 m/S 690 mmHg 77%
    23:00 +20°C° 0.1 mm 2 m/S 690 mmHg 76%

    Morgen, 21 Juni, Freitag

    Zeit Temperatur Niederschläge Wind Luftdruck Luftfeuchtigkeit
    00:00 +20°C° 0.1 mm 2 m/S 690 mmHg 75%
    01:00 +20°C° 0.1 mm 2 m/S 690 mmHg 76%
    02:00 +21°C° 0.1 mm 1 m/S 690 mmHg 76%
    03:00 +20°C° 0.1 mm 1 m/S 690 mmHg 77%
    04:00 +21°C° 0.1 mm 1 m/S 690 mmHg 78%
    05:00 +21°C° 0.1 mm 1 m/S 690 mmHg 79%
    06:00 +22°C° 0.1 mm 1 m/S 690 mmHg 81%
    07:00 +23°C° 0.1 mm 1 m/S 690 mmHg 77%
    08:00 +24°C° 0.1 mm 2 m/S 690 mmHg 73%
    09:00 +25°C° 0.1 mm 2 m/S 690 mmHg 69%
    10:00 +26°C° 0.2 mm 2 m/S 690 mmHg 68%
    11:00 +26°C° 0.2 mm 2 m/S 690 mmHg 67%
    12:00 +27°C° 0.2 mm 2 m/S 690 mmHg 66%
    13:00 +27°C° 0.2 mm 2 m/S 690 mmHg 66%
    14:00 +27°C° 0.2 mm 2 m/S 690 mmHg 65%
    15:00 +27°C° 0.2 mm 2 m/S 690 mmHg 65%
    16:00 +27°C° 0.2 mm 2 m/S 690 mmHg 68%
    17:00 +26°C° 0.2 mm 1 m/S 690 mmHg 71%
    18:00 +26°C° 0.2 mm 1 m/S 690 mmHg 75%
    19:00 +24°C° 0.5 mm 1 m/S 691 mmHg 76%
    20:00 +23°C° 0.5 mm 1 m/S 691 mmHg 77%
    21:00 +21°C° 0.5 mm 1 m/S 691 mmHg 79%
    22:00 +21°C° 0 mm 1 m/S 691 mmHg 79%
    23:00 +20°C° 0 mm 1 m/S 691 mmHg 79%

    übermorgen, 22 Juni, Samstag

    Zeit Temperatur Niederschläge Wind Luftdruck Luftfeuchtigkeit
    00:00 +19°C° 0 mm 2 m/S 691 mmHg 79%
    01:00 +20°C° 0 mm 1 m/S 691 mmHg 80%
    02:00 +19°C° 0 mm 1 m/S 691 mmHg 81%
    03:00 +19°C° 0 mm 1 m/S 691 mmHg 81%
    04:00 +20°C° 0 mm 1 m/S 692 mmHg 81%
    05:00 +21°C° 0 mm 1 m/S 692 mmHg 81%
    06:00 +21°C° 0 mm 1 m/S 692 mmHg 80%
    07:00 +23°C° 0 mm 1 m/S 693 mmHg 77%
    08:00 +24°C° 0 mm 1 m/S 693 mmHg 73%
    09:00 +26°C° 0 mm 1 m/S 693 mmHg 69%
    10:00 +26°C° 0.1 mm 2 m/S 693 mmHg 69%
    11:00 +27°C° 0.1 mm 2 m/S 693 mmHg 68%
    12:00 +27°C° 0.1 mm 2 m/S 693 mmHg 68%
    13:00 +28°C° 0.4 mm 2 m/S 692 mmHg 67%
    14:00 +28°C° 0.4 mm 2 m/S 692 mmHg 67%
    15:00 +28°C° 0.4 mm 2 m/S 692 mmHg 66%
    16:00 +28°C° 0.3 mm 2 m/S 692 mmHg 67%
    17:00 +28°C° 0.3 mm 1 m/S 692 mmHg 69%
    18:00 +27°C° 0.3 mm 1 m/S 692 mmHg 71%
    19:00 +26°C° 0.4 mm 1 m/S 692 mmHg 72%
    20:00 +24°C° 0.4 mm 1 m/S 693 mmHg 74%
    21:00 +22°C° 0.4 mm 1 m/S 693 mmHg 76%
    22:00 +22°C° 0 mm 1 m/S 693 mmHg 76%
    23:00 +20°C° 0 mm 2 m/S 693 mmHg 76%

    23 Juni, Sonntag

    Zeit Temperatur Niederschläge Wind Luftdruck Luftfeuchtigkeit
    00:00 +20°C° 0 mm 2 m/S 693 mmHg 77%
    01:00 +20°C° 0 mm 2 m/S 693 mmHg 77%
    02:00 +20°C° 0 mm 2 m/S 693 mmHg 77%
    03:00 +20°C° 0 mm 2 m/S 693 mmHg 77%
    04:00 +21°C° 0 mm 1 m/S 693 mmHg 77%
    05:00 +22°C° 0 mm 1 m/S 693 mmHg 78%
    06:00 +23°C° 0 mm 1 m/S 694 mmHg 78%
    07:00 +24°C° 0 mm 1 m/S 694 mmHg 74%
    08:00 +26°C° 0 mm 1 m/S 694 mmHg 70%
    09:00 +27°C° 0 mm 2 m/S 694 mmHg 66%
    10:00 +28°C° 0.2 mm 2 m/S 694 mmHg 65%
    11:00 +29°C° 0.2 mm 2 m/S 694 mmHg 63%
    12:00 +30°C° 0.2 mm 2 m/S 694 mmHg 62%
    13:00 +30°C° 0.2 mm 2 m/S 694 mmHg 61%
    14:00 +30°C° 0.2 mm 2 m/S 693 mmHg 60%
    15:00 +31°C° 0.2 mm 2 m/S 693 mmHg 59%
    16:00 +30°C° 0.3 mm 2 m/S 693 mmHg 63%
    17:00 +30°C° 0.3 mm 2 m/S 693 mmHg 67%
    18:00 +29°C° 0.3 mm 1 m/S 693 mmHg 71%
    19:00 +27°C° 0.2 mm 1 m/S 693 mmHg 72%
    20:00 +25°C° 0.2 mm 1 m/S 693 mmHg 74%
    21:00 +23°C° 0.2 mm 1 m/S 693 mmHg 75%
    22:00 +23°C° 0 mm 1 m/S 693 mmHg 74%
    23:00 +23°C° 0 mm 1 m/S 693 mmHg 74%

    24 Juni, Montag

    Zeit Temperatur Niederschläge Wind Luftdruck Luftfeuchtigkeit
    00:00 +22°C° 0 mm 1 m/S 693 mmHg 73%
    01:00 +22°C° 0 mm 1 m/S 693 mmHg 73%
    02:00 +22°C° 0 mm 1 m/S 693 mmHg 72%
    03:00 +22°C° 0 mm 1 m/S 693 mmHg 72%
    04:00 +22°C° 0 mm 1 m/S 693 mmHg 73%
    05:00 +23°C° 0 mm 1 m/S 693 mmHg 74%
    06:00 +23°C° 0 mm 1 m/S 693 mmHg 75%
    07:00 +25°C° 0 mm 1 m/S 693 mmHg 71%
    08:00 +26°C° 0 mm 1 m/S 694 mmHg 67%
    09:00 +28°C° 0 mm 1 m/S 694 mmHg 62%
    10:00 +29°C° 0.1 mm 2 m/S 693 mmHg 62%
    11:00 +29°C° 0.1 mm 2 m/S 693 mmHg 61%
    12:00 +30°C° 0.1 mm 2 m/S 693 mmHg 60%
    13:00 +30°C° 0.1 mm 2 m/S 693 mmHg 60%
    14:00 +31°C° 0.1 mm 2 m/S 693 mmHg 59%
    15:00 +31°C° 0.1 mm 2 m/S 693 mmHg 59%
    16:00 +31°C° 0.2 mm 1 m/S 693 mmHg 62%
    17:00 +30°C° 0.2 mm 1 m/S 692 mmHg 65%
    18:00 +30°C° 0.2 mm 1 m/S 692 mmHg 67%
    19:00 +28°C° 0.1 mm 1 m/S 693 mmHg 69%
    20:00 +26°C° 0.1 mm 1 m/S 693 mmHg 71%
    21:00 +24°C° 0.1 mm 1 m/S 693 mmHg 73%
    22:00 +24°C° 0 mm 2 m/S 693 mmHg 73%
    23:00 +23°C° 0 mm 2 m/S 693 mmHg 73%

    25 Juni, Dienstag

    Zeit Temperatur Niederschläge Wind Luftdruck Luftfeuchtigkeit
    00:00 +23°C° 0 mm 2 m/S 693 mmHg 73%
    01:00 +23°C° 0 mm 2 m/S 693 mmHg 73%
    02:00 +23°C° 0 mm 2 m/S 693 mmHg 72%
    03:00 +21°C° 0 mm 2 m/S 693 mmHg 72%
    04:00 +23°C° 0 mm 2 m/S 693 mmHg 73%
    05:00 +24°C° 0 mm 2 m/S 693 mmHg 74%
    06:00 +24°C° 0 mm 1 m/S 694 mmHg 75%
    07:00 +26°C° 0 mm 1 m/S 694 mmHg 70%
    08:00 +27°C° 0 mm 1 m/S 694 mmHg 65%
    09:00 +29°C° 0 mm 1 m/S 694 mmHg 60%
    10:00 +30°C° 0 mm 2 m/S 694 mmHg 59%
    11:00 +31°C° 0 mm 2 m/S 694 mmHg 58%
    12:00 +31°C° 0 mm 2 m/S 694 mmHg 57%
    13:00 +31°C° 0.1 mm 2 m/S 693 mmHg 57%
    14:00 +32°C° 0.1 mm 2 m/S 693 mmHg 56%
    15:00 +32°C° 0.1 mm 2 m/S 693 mmHg 56%
    16:00 +31°C° 0.2 mm 2 m/S 693 mmHg 59%
    17:00 +31°C° 0.2 mm 1 m/S 693 mmHg 62%
    18:00 +30°C° 0.2 mm 1 m/S 692 mmHg 65%
    19:00 +29°C° 0 mm 1 m/S 693 mmHg 67%
    20:00 +27°C° 0 mm 1 m/S 693 mmHg 69%
    21:00 +25°C° 0 mm 1 m/S 693 mmHg 71%
    22:00 +24°C° 0 mm 1 m/S 693 mmHg 71%
    23:00 +24°C° 0 mm 1 m/S 693 mmHg 71%
    Mehr zeigen